Location: Unspecified
(41.1637°N, 24.2901°E)
Time: 10:28:44
(UTC+01:00)

ISS - Visible Passes

Search period start: 09 November 2025 00:00
Search period end: 19 November 2025 00:00
Orbit: 415 x 421 km, 51.6° (Epoch: 08 November)

Date Brightness Start Highest point End Pass type
(mag) Time Alt. Az. Time Alt. Az. Time Alt. Az.
10 Nov -1.3 17:26:14 10° SSE 17:26:29 10° SE 17:26:29 10° SE visible
11 Nov -1.8 18:12:25 10° SW 18:13:57 24° SSW 18:13:57 24° SSW visible
12 Nov -2.9 17:24:49 10° SSW 17:27:49 32° SE 17:28:19 30° ESE visible
13 Nov -2.0 16:37:34 10° S 16:39:58 19° SE 16:42:24 10° E visible
13 Nov -2.3 18:13:13 10° WSW 18:15:31 36° W 18:15:31 36° W visible
14 Nov -3.8 17:25:07 10° SW 17:28:27 86° NW 17:29:39 37° NE visible
15 Nov -3.5 16:37:11 10° SW 16:40:27 54° SE 16:43:42 10° ENE visible
15 Nov -1.6 18:14:32 10° W 18:16:38 23° NW 18:16:38 23° NW visible
16 Nov -2.5 17:26:05 10° W 17:29:12 35° NNW 17:30:35 24° NNE visible
17 Nov -3.2 16:37:45 10° WSW 16:41:01 53° NNW 16:44:19 10° NE visible
17 Nov -1.1 18:16:06 10° NW 18:17:22 15° NW 18:17:22 15° NW visible
18 Nov -1.8 17:27:27 10° WNW 17:30:01 20° NNW 17:31:11 17° N visible
